Temperature
10 10 10 10 10 10 10 10 10 10 10 11 11 11 11 11 11 12 12 12 12 12 12 12 11 11 11 11 11 11 11 11 10 8 8 8 8 7 7 7 7 7 7
9 9 9 9 9 9 9 10 10 10 10 10 10 10 11 11 11 11 11 11 11 11 11 11 11 11 11 11 11 10 10 10 10 9 8 7 7 7 7 7 7 7 7
8 8 8 8 9 9 9 9 9 9 9 9 9 10 10 10 10 10 10 10 10 10 10 10 10 10 10 10 10 10 9 9 9 9 7 7 7 7 7 7 7 7 7
8 8 8 8 8 8 8 8 8 8 8 9 9 9 9 9 9 9 10 10 10 10 10 10 10 10 10 10 10 9 9 9 8 8 7 7 7 7 7 7 7 7 7
8 7 7 7 7 7 7 8 8 8 8 8 8 8 9 9 9 9 9 9 9 9 9 9 9 9 9 9 9 9 9 8 8 8 7 7 7 7 7 7 7 7 7
7 7 7 7 7 7 7 7 7 7 7 7 8 8 8 8 8 8 8 8 9 9 9 9 9 9 9 9 9 9 9 9 8 8 8 7 7 7 7 7 7 7 7
7 7 7 7 7 7 7 7 7 7 7 7 7 7 7 7 7 8 8 8 8 8 8 8 8 8 8 8 8 8 8 8 8 8 8 8 7 7 7 7 7 7 7
6 6 6 7 6 6 6 6 6 6 7 7 7 7 7 7 7 7 7 8 8 8 8 8 8 8 8 8 8 8 8 8 8 8 8 8 8 8 7 7 7 7 7
6 6 6 6 6 6 6 6 6 6 6 6 6 7 7 7 7 7 7 7 7 7 7 7 8 8 8 8 8 8 8 7 7 7 7 7 7 7 7 7 7 7 7
6 6 6 6 6 6 6 6 6 6 6 6 6 6 6 7 7 7 7 7 7 7 7 7 7 7 7 8 8 8 8 7 7 7 7 7 7 7 7 7 7 7 7
6 6 6 6 6 6 6 6 6 6 6 6 6 6 6 6 7 7 7 7 7 7 7 7 7 7 7 7 7 7 7 7 7 7 7 7 7 7 7 7 7 7 7
6 5 6 6 6 6 6 6 6 6 6 6 6 6 6 6 6 7 7 7 7 7 7 7 7 7 7 7 7 7 7 7 7 7 7 7 7 7 7 7 7 7 7
5 5 5 5 5 6 6 6 6 6 6 6 6 6 6 6 6 7 7 7 7 7 7 7 7 7 7 7 7 7 7 7 7 7 7 7 7 7 7 7 7 7 7
6 5 5 5 6 6 6 6 6 6 6 6 6 6 6 6 7 7 7 7 7 7 7 7 7 7 7 7 7 7 7 7 7 7 7 7 7 7 7 7 7 7 7
6 5 6 6 6 6 6 6 6 6 6 6 6 6 6 6 6 7 7 7 7 7 7 7 7 7 7 7 7 7 7 7 7 7 7 7 7 7 7 7 7 7 8
6 6 6 6 6 6 6 6 6 6 6 6 6 6 7 7 7 7 7 7 7 7 7 7 7 7 7 7 7 7 7 7 7 7 7 7 7 7 7 7 7 7 7
6 6 6 6 6 6 6 6 6 6 6 6 6 7 7 7 7 7 7 7 7 7 7 8 8 8 8 8 7 7 7 7 7 7 7 7 7 7 7 7 7 7 7
6 6 6 6 7 7 7 7 7 7 7 7 7 7 7 7 7 7 7 7 8 8 8 8 8 8 8 8 8 7 7 7 7 7 7 7 7 7 7 7 7 7 7
6 7 7 7 7 7 7 7 7 7 7 7 7 7 7 7 7 8 8 8 8 8 8 8 8 8 8 8 8 8 7 7 7 7 7 7 7 7 7 7 7 7 7
7 7 7 7 7 7 7 7 7 7 7 7 7 8 8 8 8 8 8 8 8 8 8 8 8 8 8 8 8 8 8 7 7 7 7 7 7 7 7 7 7 7 7
7 7 8 8 8 8 8 8 8 8 8 8 8 8 8 8 8 8 8 8 8 8 8 8 8 8 8 8 8 8 8 8 8 7 7 7 7 7 7 7 7 7 7
8 8 8 8 8 8 8 8 8 8 8 9 9 9 8 8 9 9 9 9 8 8 8 8 8 8 8 8 8 8 8 8 8 8 8 7 7 7 7 7 7 7 7
8 8 8 8 9 9 9 9 9 9 9 9 9 9 9 9 9 9 9 9 9 9 9 8 8 8 8 8 8 8 8 8 8 8 8 8 8 7 7 7 8 8 8
8 8 9 9 9 9 9 9 9 9 9 9 9 9 9 9 9 9 9 9 9 9 9 9 9 8 8 8 8 8 8 8 8 8 8 8 8 8 8 8 8 8 8
9 9 9 9 9 9 9 10 10 10 10 10 10 10 10 10 10 10 9 9 9 9 9 9 9 9 9 9 8 8 8 8 8 8 8 8 8 8 8 8 8 8 8
9 9 9 9 9 10 10 10 10 10 10 10 10 10 10 10 10 10 10 10 10 9 9 9 9 9 9 9 9 9 9 9 9 9 9 8 8 8 8 8 8 8 8
Wind_Speed
5 5 5 5 5 5 4 4 4 4 4 4 4 4 4 4 4 4 3 3 3 4 4 4 3 3 4 4 5 5 5 6 8 5 4 5 5 5 6 7 7 7 7
4 5 5 4 5 5 5 5 5 5 5 4 4 5 5 5 4 4 5 5 5 5 5 5 5 5 6 5 5 7 6 6 11 12 6 4 4 5 5 5 5 5 6
4 4 5 5 5 5 5 5 5 5 6 6 6 6 5 5 5 5 5 6 6 6 6 6 6 7 7 6 8 8 8 9 9 11 7 4 3 4 4 3 3 2 4
4 4 4 4 5 5 5 6 6 6 7 7 7 6 6 6 6 6 7 7 7 7 7 7 7 7 8 8 8 9 10 10 10 10 8 5 4 4 4 3 2 0 2
4 4 4 4 4 5 6 6 6 7 8 7 8 8 7 7 7 7 8 9 9 9 9 8 8 10 9 8 9 9 10 9 8 8 7 5 4 4 3 2 2 1 1
4 3 3 4 5 5 5 6 7 8 8 8 9 8 9 8 11 13 10 9 10 10 10 9 10 11 12 13 12 11 10 10 9 7 6 6 4 3 3 3 3 2 1
4 4 4 4 5 5 6 7 8 8 8 8 8 9 10 10 14 14 14 10 11 10 9 9 9 10 11 11 13 14 11 11 10 8 8 6 5 4 5 3 2 2 2
4 4 5 5 6 6 6 7 7 6 7 7 8 9 9 10 14 14 15 12 11 10 10 9 9 9 9 11 12 12 10 8 9 7 7 6 5 5 5 5 4 2 1
5 5 4 5 5 6 6 6 5 6 7 7 7 8 9 9 12 13 13 9 10 10 10 10 9 10 12 14 12 11 10 7 11 12 11 9 8 7 8 5 4 4 2
4 4 4 5 5 5 5 5 5 6 6 6 8 8 8 8 10 12 11 7 9 8 8 9 12 12 13 13 10 10 9 5 5 6 7 7 7 7 6 5 5 4 2
4 5 5 5 4 4 4 4 5 6 6 7 8 7 7 7 9 11 11 6 6 7 6 6 6 13 14 14 11 7 7 5 5 6 5 4 4 4 3 3 4 4 3
5 6 6 5 4 5 6 5 5 6 6 6 6 7 6 6 8 9 11 10 8 7 5 4 5 11 12 11 8 8 9 7 5 5 4 3 2 2 2 2 1 2 4
6 6 6 6 6 5 6 6 5 5 5 4 5 5 5 5 7 11 12 12 11 6 3 5 7 9 9 7 8 9 7 5 5 4 2 1 1 1 2 3 4 4 4
6 5 5 6 6 6 5 4 4 4 4 4 4 4 4 4 5 5 5 6 8 6 4 5 7 9 7 6 6 5 4 4 4 3 1 1 2 2 2 1 2 3 3
5 5 5 5 5 6 5 5 4 2 1 3 3 3 4 3 2 3 4 4 3 2 3 4 4 4 4 4 4 3 3 3 3 2 1 2 2 2 2 2 1 2 2
4 4 3 3 4 4 5 5 8 6 5 5 6 6 3 4 4 5 6 5 5 5 5 4 2 2 1 1 2 2 2 1 1 1 1 1 1 1 2 2 2 1 1
5 4 3 3 3 3 3 4 3 5 8 8 6 7 5 4 4 4 5 5 5 6 4 2 1 0 1 1 1 1 0 0 0 1 1 1 1 1 1 2 2 2 2
4 3 3 3 3 3 3 3 3 3 2 2 3 2 2 1 2 3 4 5 4 4 1 0 1 1 1 1 2 2 1 0 1 1 0 0 1 1 1 2 2 2 3
3 2 2 2 3 3 3 3 3 3 2 1 1 2 2 2 3 3 3 2 0 1 1 1 2 2 2 2 2 2 2 2 1 1 1 1 1 1 2 2 3 5 3
2 3 3 2 2 2 3 3 3 3 3 3 3 3 1 1 2 3 1 1 1 2 2 1 2 2 2 2 2 2 2 2 2 1 2 2 2 2 2 4 4 4 4
2 2 3 2 2 3 3 4 5 5 4 4 5 5 5 3 3 3 3 3 3 3 3 2 2 2 2 2 2 2 3 2 2 2 2 2 2 2 3 3 4 4 4
2 2 2 2 2 3 3 4 4 5 5 6 4 4 7 4 4 4 4 4 4 3 4 4 3 3 4 4 4 4 3 3 3 3 3 2 2 2 2 3 3 4 4
2 2 2 3 3 3 3 3 4 5 5 6 5 5 4 5 5 5 5 5 4 5 6 7 5 5 5 6 8 8 5 5 5 5 4 3 3 2 2 3 4 5 5
3 3 3 3 3 3 3 4 4 5 5 6 6 6 6 6 6 6 5 4 5 6 8 9 9 10 9 9 9 10 10 11 10 9 8 5 4 4 4 4 5 6 6
3 3 4 4 4 4 4 4 4 4 5 6 6 6 6 6 6 6 5 5 6 7 9 11 11 12 13 13 13 14 14 13 13 12 10 7 5 5 5 6 6 6 7
3 3 4 4 4 5 5 5 5 5 5 6 6 6 6 7 6 6 5 5 5 7 9 12 14 15 16 17 18 18 18 17 17 16 13 9 6 6 6 6 8 8 9
Wind_Direction
34 34 35 30 31 40 46 38 33 26 26 31 34 38 40 41 42 54 59 60 71 67 65 77 78 87 111 118 125 124 121 121 127 118 106 124 129 136 144 145 150 163 167
38 42 37 33 38 43 41 36 35 38 37 39 41 45 47 50 50 58 65 60 70 75 74 78 79 89 95 105 112 116 119 118 131 132 128 129 133 143 143 144 161 179 193
47 51 44 41 47 45 41 38 40 46 45 44 46 49 47 49 55 61 69 69 69 72 76 81 85 93 92 96 102 107 110 113 116 128 130 123 119 131 121 128 147 174 201
53 58 54 50 53 49 46 45 47 51 53 48 47 47 49 52 55 64 71 70 68 66 69 74 79 90 99 103 105 109 113 114 116 123 124 119 112 109 114 122 124 174 220
63 60 54 54 59 58 56 51 50 55 56 51 50 46 46 52 55 66 73 75 71 68 64 66 75 87 94 104 115 118 120 119 118 119 119 113 113 120 135 147 143 151 283
75 68 60 64 66 63 60 57 58 56 54 54 51 52 54 58 62 66 74 74 72 71 70 67 74 79 86 92 103 110 120 125 124 120 122 127 132 136 132 137 131 115 275
77 72 67 72 75 71 73 67 63 60 60 57 53 56 57 55 62 67 67 71 67 63 63 67 77 79 80 89 88 86 87 102 115 124 128 136 143 157 142 130 145 163 215
78 71 69 77 80 78 74 70 64 62 62 60 57 57 59 55 63 70 71 70 66 59 60 68 76 73 83 91 89 82 77 79 97 107 125 136 145 152 152 158 168 150 9
79 75 73 85 89 86 81 74 69 70 64 60 61 61 62 52 61 71 76 75 68 57 54 59 72 78 84 91 92 89 79 67 80 99 108 112 117 128 135 108 91 86 50
86 83 78 85 91 91 90 80 74 78 74 71 63 56 60 57 62 74 80 82 75 63 52 49 61 76 79 85 91 96 91 82 85 79 73 73 74 80 98 120 134 121 115
92 85 80 82 86 93 87 77 82 79 73 68 63 50 47 50 59 70 76 82 88 79 65 52 54 74 78 81 84 90 102 103 87 82 69 54 42 41 45 86 145 147 149
90 85 78 68 75 88 87 78 74 80 76 67 66 53 39 36 51 69 74 80 90 87 77 60 63 74 76 77 78 87 88 83 78 72 63 47 38 18 350 348 327 205 212
91 85 78 71 62 66 76 80 72 72 79 73 73 69 47 34 43 62 70 75 78 78 70 75 73 69 64 59 64 75 79 82 80 78 74 14 293 294 337 349 351 348 324
100 92 83 81 67 57 58 64 75 78 82 81 86 84 64 46 36 38 48 61 62 61 46 42 51 54 53 45 44 49 60 91 107 113 126 318 336 0 5 4 360 359 358
105 99 92 90 88 76 64 53 67 61 134 135 135 130 109 80 20 67 83 68 60 52 53 46 39 34 30 25 27 32 44 60 70 67 68 35 17 12 349 350 10 21 9
118 114 109 109 102 98 93 65 42 50 58 94 124 127 96 115 112 85 72 66 58 71 72 53 34 29 27 24 38 28 31 47 57 76 68 48 24 13 352 354 15 14 323
138 141 133 131 129 125 118 114 89 35 45 61 87 108 117 125 107 80 50 38 54 77 73 49 15 262 198 193 167 155 189 262 108 89 83 55 39 19 12 351 349 347 324
146 156 159 163 162 164 164 156 142 132 98 17 18 72 121 122 65 39 36 48 34 34 57 227 229 206 186 183 178 173 182 171 114 105 100 5 5 0 347 332 325 308 303
156 163 161 172 177 181 183 173 168 163 162 174 315 317 299 328 344 358 53 77 25 330 322 281 217 193 182 180 181 181 181 186 193 181 246 270 286 298 298 293 299 307 306
177 198 187 176 184 183 182 181 184 187 190 199 218 236 263 22 340 327 337 275 248 256 257 239 220 202 187 185 188 185 188 204 214 219 241 260 267 257 269 284 291 293 291
190 233 229 202 212 206 193 189 188 190 199 215 231 234 201 196 245 270 273 258 235 228 222 217 210 202 195 185 178 180 180 201 211 212 224 242 250 265 277 280 286 285 285
196 214 216 212 213 208 200 191 188 197 206 216 234 247 223 225 251 257 257 250 237 217 211 190 184 201 200 187 177 173 178 193 206 206 215 228 238 259 274 282 290 291 288
209 223 233 230 220 216 214 211 203 206 214 219 223 225 221 228 239 240 244 242 231 224 211 193 191 204 210 203 196 188 186 200 208 202 200 217 233 250 257 267 278 286 286
213 220 226 231 226 219 218 222 220 217 217 221 222 222 222 224 228 231 231 230 228 223 214 204 202 207 211 211 212 212 215 221 222 219 215 214 231 248 256 265 274 278 280
215 222 226 227 224 225 228 232 234 233 228 224 219 220 222 221 226 231 226 227 222 222 224 221 219 221 222 222 225 227 231 234 235 235 233 227 236 248 256 265 272 279 280
225 234 230 227 228 227 226 232 236 234 231 230 223 220 219 220 224 227 225 225 227 230 234 234 232 231 232 233 235 238 240 242 244 245 241 236 239 253 259 264 273 275 279
Height
1525 1523 1522 1521 1520 1519 1518 1518 1517 1516 1515 1514 1513 1512 1511 1510 1509 1508 1508 1507 1506 1506 1505 1505 1505 1506 1506 1507 1508 1510 1513 1517 1519 1526 1532 1537 1542 1545 1548 1552 1554 1557 1559
1525 1524 1523 1522 1521 1519 1518 1517 1516 1515 1514 1514 1513 1512 1511 1510 1509 1508 1507 1507 1506 1505 1504 1504 1505 1505 1506 1507 1509 1511 1513 1517 1520 1525 1532 1538 1542 1546 1550 1553 1556 1558 1560
1526 1525 1523 1522 1521 1519 1518 1517 1516 1515 1514 1514 1513 1512 1511 1510 1509 1509 1508 1507 1507 1506 1506 1506 1506 1507 1507 1509 1511 1513 1516 1519 1523 1527 1533 1539 1544 1548 1551 1554 1557 1559 1561
1527 1525 1524 1523 1521 1520 1519 1518 1517 1516 1515 1515 1514 1513 1512 1512 1511 1510 1510 1510 1509 1509 1508 1509 1509 1510 1511 1512 1514 1516 1519 1523 1527 1531 1536 1542 1546 1549 1553 1555 1558 1560 1561
1528 1526 1525 1524 1523 1521 1521 1519 1518 1518 1517 1516 1515 1515 1514 1514 1513 1513 1513 1512 1512 1512 1512 1513 1513 1514 1515 1517 1519 1521 1524 1527 1531 1535 1539 1544 1548 1551 1554 1557 1559 1561 1563
1528 1527 1526 1525 1524 1523 1522 1521 1520 1520 1519 1519 1518 1517 1517 1517 1517 1517 1516 1516 1516 1516 1516 1517 1518 1519 1521 1522 1525 1527 1530 1532 1535 1538 1542 1546 1550 1553 1555 1558 1560 1562 1563
1529 1528 1527 1526 1526 1525 1525 1524 1523 1523 1522 1522 1521 1521 1521 1521 1521 1521 1521 1521 1521 1521 1522 1522 1523 1525 1526 1528 1530 1533 1535 1538 1541 1543 1546 1549 1552 1555 1557 1559 1561 1563 1564
1530 1529 1529 1528 1528 1528 1527 1527 1527 1526 1526 1526 1526 1526 1526 1526 1526 1526 1526 1526 1526 1527 1528 1529 1529 1531 1533 1534 1535 1537 1540 1543 1545 1548 1550 1553 1555 1557 1559 1561 1562 1564 1565
1531 1531 1531 1530 1530 1530 1530 1530 1531 1530 1530 1530 1531 1531 1531 1531 1532 1532 1532 1532 1532 1533 1534 1535 1536 1537 1538 1540 1540 1542 1544 1547 1550 1552 1554 1556 1558 1559 1561 1562 1563 1564 1565
1533 1533 1533 1533 1533 1533 1534 1534 1534 1535 1535 1535 1536 1536 1536 1537 1537 1537 1538 1538 1538 1538 1540 1541 1542 1543 1544 1545 1546 1547 1548 1551 1553 1555 1557 1559 1560 1561 1563 1564 1564 1565 1565
1535 1535 1535 1535 1536 1536 1537 1538 1538 1539 1539 1540 1540 1541 1541 1542 1542 1543 1543 1543 1543 1544 1545 1546 1548 1549 1550 1551 1551 1552 1554 1555 1557 1559 1560 1561 1562 1563 1564 1565 1565 1566 1566
1537 1537 1537 1538 1539 1540 1540 1541 1542 1543 1543 1544 1545 1546 1546 1547 1547 1548 1548 1548 1549 1549 1550 1551 1553 1554 1555 1555 1556 1557 1558 1559 1561 1562 1563 1564 1565 1565 1566 1566 1566 1566 1566
1539 1540 1540 1541 1542 1543 1544 1544 1545 1547 1548 1549 1549 1550 1550 1551 1552 1552 1552 1553 1554 1554 1555 1556 1557 1558 1559 1559 1560 1561 1562 1563 1564 1565 1565 1566 1567 1567 1567 1567 1567 1567 1567
1542 1543 1543 1544 1545 1546 1547 1548 1549 1550 1551 1552 1553 1554 1554 1555 1555 1556 1556 1557 1558 1559 1559 1560 1561 1562 1562 1563 1564 1565 1565 1566 1567 1567 1568 1568 1568 1568 1568 1568 1568 1567 1567
1545 1546 1547 1548 1548 1549 1550 1551 1553 1554 1555 1556 1557 1557 1558 1558 1559 1559 1560 1561 1562 1562 1563 1564 1564 1565 1565 1566 1567 1567 1568 1568 1568 1569 1569 1569 1569 1569 1569 1569 1568 1567 1567
1548 1549 1550 1551 1552 1553 1554 1555 1556 1557 1558 1559 1559 1560 1561 1561 1562 1563 1563 1564 1565 1566 1566 1566 1567 1567 1568 1568 1569 1569 1569 1570 1570 1570 1570 1570 1570 1569 1569 1569 1568 1567 1566
1551 1552 1553 1554 1555 1556 1557 1558 1559 1560 1560 1561 1562 1562 1563 1564 1564 1565 1566 1567 1568 1568 1568 1569 1569 1569 1569 1570 1570 1570 1570 1571 1571 1571 1570 1570 1570 1569 1569 1568 1567 1566 1565
1554 1555 1556 1557 1558 1559 1560 1561 1562 1562 1562 1563 1564 1564 1565 1566 1567 1568 1568 1569 1570 1570 1570 1570 1570 1570 1570 1571 1571 1571 1571 1571 1571 1571 1570 1570 1569 1569 1568 1567 1567 1565 1564
1556 1558 1559 1560 1561 1562 1563 1563 1564 1564 1565 1565 1566 1567 1567 1568 1569 1570 1570 1571 1571 1571 1571 1571 1571 1571 1571 1571 1571 1571 1571 1571 1571 1571 1570 1569 1569 1568 1567 1566 1565 1564 1563
1559 1560 1561 1562 1563 1564 1565 1565 1566 1566 1567 1568 1568 1569 1569 1570 1571 1571 1572 1572 1572 1572 1572 1572 1572 1572 1572 1571 1571 1571 1571 1571 1570 1570 1569 1569 1568 1567 1566 1565 1564 1562 1561
1560 1562 1563 1564 1565 1565 1566 1567 1567 1568 1569 1569 1570 1570 1571 1571 1572 1572 1572 1572 1572 1572 1572 1572 1572 1572 1571 1571 1571 1571 1570 1570 1569 1569 1568 1567 1566 1565 1564 1563 1562 1560 1558
1561 1562 1564 1565 1565 1566 1567 1568 1568 1569 1570 1570 1571 1571 1572 1572 1572 1572 1572 1572 1572 1572 1572 1572 1571 1571 1571 1570 1570 1569 1569 1568 1568 1567 1566 1565 1564 1563 1562 1560 1559 1557 1555
1562 1563 1564 1565 1566 1567 1567 1568 1569 1569 1570 1570 1571 1571 1571 1572 1572 1572 1572 1572 1572 1571 1571 1571 1571 1570 1570 1569 1568 1568 1567 1567 1566 1565 1564 1563 1562 1560 1559 1557 1555 1554 1552
1562 1563 1564 1564 1565 1566 1567 1568 1568 1569 1569 1570 1570 1570 1571 1571 1571 1571 1571 1571 1571 1571 1570 1570 1570 1569 1569 1568 1567 1566 1565 1565 1564 1562 1561 1560 1559 1557 1555 1554 1552 1550 1548
1561 1562 1563 1564 1564 1565 1566 1567 1567 1568 1568 1568 1569 1569 1570 1570 1570 1570 1570 1570 1570 1569 1569 1569 1568 1568 1567 1566 1565 1564 1563 1562 1561 1560 1558 1557 1555 1553 1552 1550 1548 1545 1543
1559 1560 1561 1562 1563 1564 1565 1565 1566 1566 1566 1567 1567 1567 1568 1568 1568 1568 1568 1568 1568 1567 1567 1567 1566 1565 1565 1564 1563 1562 1561 1559 1558 1557 1555 1553 1551 1549 1547 1545 1543 1540 1538